Location: Usti nad Labem
(50.6670°N, 14.0330°E)
Time: 22:19:00
(UTC+01:00)

Envisat - Pass Details

Date: 06 December 2020
Orbit: 764 x 766 km, 98.1° (Epoch: 15 January)

Event Time Altitude Azimuth Distance (km) Brightness Sun altitude
Rises 04:51:27 0° 25° (NNE) 3,245 6.5 -27.2°
Reaches altitude 10° 04:54:21 10° 42° (NE) 2,313 5.9 -26.7°
Maximum altitude 04:58:08 21° 90° (E) 1,689 5.5 -26.1°
Drops below altitude 10° 05:01:53 10° 138° (SE) 2,299 6.0 -25.5°
Sets 05:04:44 0° 154° (SSE) 3,219 6.6 -25.1°
